Location: Newark
(40.3500°N, 15.2333°E)
Time: 14:00:00
(UTC+00:00)

A-11 Canister half - Visible Passes

Search period start: 19 January 2020 00:00
Search period end: 29 January 2020 00:00
Orbit: 1525 x 1684 km, 47.3° (Epoch: 19 January)

Date Brightness Start Highest point End Pass type
(mag) Time Alt. Az. Time Alt. Az. Time Alt. Az.
19 Jan 9.8 16:22:45 10° SSW 16:30:51 35° SE 16:39:06 10° ENE visible
19 Jan 8.9 18:25:41 10° WSW 18:35:07 89° NNW 18:37:54 53° ENE visible
19 Jan 10.2 20:31:32 10° W 20:36:13 32° WNW 20:36:13 32° WNW visible
20 Jan 8.9 18:04:03 10° WSW 18:13:28 89° SSE 18:17:40 40° ENE visible
20 Jan 9.8 20:09:51 10° W 20:15:58 42° WNW 20:15:58 42° WNW visible
21 Jan 8.9 17:42:27 10° WSW 17:51:50 86° SSE 17:57:23 30° ENE visible
21 Jan 9.5 19:48:10 10° W 19:55:42 52° NW 19:55:42 52° NW visible
22 Jan 9.0 17:20:51 10° SW 17:30:12 84° SSE 17:37:04 22° ENE visible
22 Jan 9.2 19:26:29 10° W 19:35:23 59° NNW 19:35:23 59° NNW visible
22 Jan 11.0 21:32:26 10° WNW 21:33:41 15° WNW 21:33:41 15° WNW visible
23 Jan 9.0 16:59:14 10° SW 17:08:34 81° SSE 17:16:44 16° ENE visible
23 Jan 9.1 19:04:49 10° W 19:14:08 60° N 19:15:03 58° NNE visible
23 Jan 10.7 21:10:48 10° WNW 21:13:21 21° WNW 21:13:21 21° WNW visible
24 Jan 9.1 16:37:39 10° SW 16:46:57 78° SE 16:56:23 10° ENE visible
24 Jan 9.2 18:43:08 10° W 18:52:27 61° N 18:54:41 50° NE visible
24 Jan 10.4 20:49:08 10° WNW 20:52:59 28° WNW 20:52:59 28° WNW visible
25 Jan 9.2 18:21:27 10° W 18:30:45 61° N 18:34:18 41° NE visible
25 Jan 10.1 20:27:29 10° WNW 20:32:37 36° NW 20:32:37 36° NW visible
26 Jan 9.2 17:59:46 10° W 18:09:04 62° NNW 18:13:55 32° ENE visible
26 Jan 9.7 20:05:50 10° WNW 20:12:13 45° NW 20:12:13 45° NW visible
27 Jan 9.2 17:38:06 10° W 17:47:23 63° NNW 17:53:32 25° ENE visible
27 Jan 9.4 19:44:10 10° WNW 19:51:50 54° NNW 19:51:50 54° NNW visible
27 Jan 11.2 21:49:28 10° WNW 21:50:08 13° WNW 21:50:08 13° WNW visible
28 Jan 9.2 17:16:25 10° W 17:25:42 64° NNW 17:33:08 19° ENE visible
28 Jan 9.2 19:22:31 10° WNW 19:31:26 60° N 19:31:26 60° N visible
28 Jan 10.9 21:27:50 10° WNW 21:29:44 18° WNW 21:29:44 18° WNW visible
